CAPE
0 0 0 0 0 0 0 0 0 0 0 0 0 0 0 0 0 0 0 0 0 0 0 0 0 0 0 0 0 0 0 0 0 0 0 0 0 0 0 0 0 0 0 0 0 0 0 0 0 0 0 0 0 0
0 0 0 0 0 0 0 0 0 0 0 0 0 0 0 0 0 0 0 0 0 0 0 0 0 0 0 0 0 0 0 0 0 0 0 0 0 0 0 0 0 0 0 0 0 0 0 0 0 0 0 0 0 0
0 0 0 0 0 0 0 0 0 0 0 0 0 0 0 0 0 0 0 0 0 0 0 0 0 0 0 0 0 0 0 0 0 0 0 0 0 0 0 0 0 0 0 0 0 0 0 0 0 0 0 1 0 0
0 0 0 0 0 0 0 0 0 0 0 0 0 0 0 0 0 0 0 0 0 0 0 0 0 0 0 0 0 0 0 0 0 0 0 0 0 0 0 0 0 0 0 0 0 0 0 0 0 0 0 0 0 0
1 1 0 0 0 0 0 0 0 0 0 0 0 0 0 0 0 0 0 0 0 0 0 0 0 0 0 0 0 0 0 0 0 0 0 0 0 0 0 0 0 0 0 0 0 0 0 0 0 0 0 0 0 0
0 1 0 0 0 0 0 0 0 0 0 0 0 0 0 0 0 0 0 0 0 0 0 0 0 0 0 0 0 0 0 0 0 0 0 0 0 0 0 0 0 0 0 0 0 0 0 0 0 0 0 0 0 0
0 2 3 0 0 0 0 0 0 0 0 0 0 0 0 0 0 0 0 0 0 0 0 0 0 0 0 0 0 0 0 0 0 0 0 0 0 0 0 0 0 0 0 0 0 0 0 0 0 0 0 0 0 0
2 20 13 8 1 1 0 0 0 0 0 0 0 0 0 0 0 0 0 0 0 0 0 0 0 0 0 0 0 0 0 0 0 0 0 0 0 0 0 0 0 0 0 0 0 0 0 0 0 0 0 0 0 0
21 13 0 3 6 3 0 0 0 0 0 0 0 0 0 0 0 0 0 0 0 0 0 0 0 0 0 0 0 0 0 0 0 0 0 0 0 0 0 0 0 0 0 0 0 0 0 0 0 0 0 0 0 0
1 0 1 5 0 6 2 1 3 8 6 0 0 0 0 0 0 0 0 0 0 0 0 0 0 0 0 0 0 0 0 0 0 0 0 0 0 0 0 0 0 0 0 0 0 0 0 0 0 0 0 0 0 0
0 1 0 15 6 10 9 5 14 20 0 0 0 0 10 13 0 0 0 0 0 0 0 0 0 0 0 0 0 0 0 0 0 0 0 0 0 0 0 0 0 0 0 0 0 0 0 0 0 0 0 2 0 1
1 13 14 11 6 10 15 6 0 0 0 0 0 1 0 1 1 0 0 0 0 0 0 0 0 0 0 0 0 0 0 0 0 0 0 0 0 0 0 0 0 0 0 0 0 0 0 0 0 0 0 0 0 0
2 3 5 5 4 5 5 4 18 18 0 0 0 0 1 0 0 0 0 0 0 0 0 0 0 0 0 0 0 0 1 0 0 0 0 0 5 0 0 0 0 0 0 0 0 0 0 0 0 0 0 0 0 0
10 4 1 17 21 12 16 1 0 0 0 0 0 0 0 0 0 0 0 0 0 0 0 0 0 4 0 0 0 0 0 0 0 0 0 11 0 0 0 0 0 0 0 0 0 0 0 0 0 1 0 0 0 0
0 1 7 0 0 0 0 0 0 0 0 0 0 0 0 0 0 0 0 0 0 0 0 0 0 0 1 0 0 0 0 0 0 0 1 0 0 0 0 0 0 0 0 0 1 2 1 1 1 1 1 2 1 0
0 0 0 1 10 5 0 0 0 0 0 0 0 0 0 0 0 0 0 0 0 0 0 0 0 0 0 0 0 0 0 0 0 0 0 0 0 0 0 0 0 0 0 0 1 0 0 0 0 0 0 0 0 1
0 0 0 0 0 2 0 0 0 0 0 0 0 0 0 0 0 0 0 0 0 0 0 0 0 0 0 0 0 0 0 0 0 0 0 0 0 0 0 0 0 0 0 1 1 0 0 0 0 0 0 0 0 0
1 0 3 0 2 0 0 0 0 0 0 0 0 0 0 0 0 0 0 0 0 0 0 0 0 0 0 0 0 0 0 0 0 0 0 0 0 0 0 0 0 0 0 1 1 0 0 0 1 1 0 0 0 1
4 0 0 0 4 1 0 0 0 0 0 0 0 0 0 0 0 0 0 0 6 4 0 0 0 0 0 0 0 0 0 0 0 0 0 0 0 0 0 0 0 0 0 0 0 0 0 0 0 0 0 0 0 0
0 0 0 0 0 0 0 0 0 0 0 0 0 0 0 0 0 0 0 1 1 0 0 0 0 0 0 0 0 0 0 0 0 0 0 0 0 0 0 0 0 0 0 0 0 0 0 0 0 0 0 0 0 0
0 1 15 0 0 0 0 0 0 0 0 0 0 0 0 0 0 0 0 0 0 0 0 0 0 0 0 0 0 0 0 0 0 0 0 0 0 0 0 0 0 0 0 0 0 0 0 0 0 0 0 0 0 0
0 0 0 0 0 0 0 0 0 0 0 0 0 0 0 0 0 0 0 2 0 0 0 0 0 0 0 0 0 0 0 0 0 0 0 0 0 0 0 0 0 0 0 0 1 0 0 0 0 0 0 0 0 0
1 2 0 0 0 0 0 0 1 5 0 0 0 0 0 0 0 0 0 0 0 0 0 0 0 0 1 0 0 0 0 0 0 0 2 0 0 0 0 0 0 0 0 0 0 1 0 0 0 0 0 0 0 0
0 0 0 0 0 0 0 0 0 0 0 0 0 0 0 0 0 0 0 0 0 0 0 0 0 0 0 0 0 0 0 0 0 0 0 2 5 8 3 1 0 0 0 0 0 0 0 0 0 0 0 0 0 0
0 0 0 0 0 0 0 0 0 0 0 0 0 0 0 0 0 0 0 0 0 0 0 0 0 0 0 2 0 0 0 0 0 0 0 0 3 3 0 0 0 0 0 0 0 0 0 0 0 0 0 0 0 0
0 0 0 0 0 0 0 0 0 0 0 0 0 0 0 0 0 0 0 0 0 0 0 0 0 0 0 0 0 0 0 0 0 0 0 0 0 0 0 0 0 0 0 0 0 0 0 0 0 0 0 0 0 0
0 0 0 0 0 0 0 0 0 0 0 0 0 0 0 0 0 0 0 0 0 0 0 0 0 0 0 0 0 0 0 0 0 0 0 0 0 0 0 0 0 0 0 0 0 0 0 0 0 0 0 0 0 0
0 0 0 0 0 0 0 0 0 0 0 0 1 0 1 0 0 0 0 1 3 0 0 0 0 0 0 0 0 0 0 0 0 0 0 0 0 0 0 0 0 0 0 0 0 0 0 0 0 0 0 0 0 0
0 0 0 0 0 0 0 0 0 0 1 0 0 0 0 1 0 0 0 0 0 0 0 0 0 0 0 0 0 0 0 0 0 0 0 0 0 0 0 0 0 0 0 0 0 0 0 0 0 0 0 0 0 0
0 0 0 0 0 0 0 0 0 0 0 0 0 0 0 0 0 0 0 0 0 0 0 0 0 0 0 0 0 0 0 0 0 0 0 0 0 0 0 0 0 0 0 0 0 0 0 0 0 0 0 0 0 0
0 0 0 0 0 0 0 0 0 0 0 0 0 0 0 0 0 0 0 0 0 0 0 0 0 0 0 0 0 0 0 0 0 0 0 0 0 0 0 0 0 0 2 2 0 0 0 0 0 0 0 0 0 0
0 0 0 0 0 0 0 0 0 0 0 0 0 0 0 0 0 0 0 0 0 0 0 0 0 0 0 0 0 0 0 0 0 0 0 0 0 0 0 0 0 0 0 0 0 0 0 0 0 0 0 0 0 0
0 0 0 0 0 0 0 0 0 0 0 0 0 0 0 0 0 0 0 0 0 0 0 0 0 0 0 0 0 0 0 0 0 0 0 0 0 0 0 0 0 0 0 0 0 0 0 0 0 0 0 0 0 0
CIN
-0 -0 -0 -0 -0 -0 -0 -0 -0 -0 -0 -0 -0 -0 -0 -0 -0 -0 -0 -0 -0 -0 -0 -0 -0 -0 -0 -0 -0 -0 -0 -0 -0 -0 -0 -0 -0 -0 -0 -0 -0 -0 -0 -0 -0 -0 -0 -0 -0 -0 -0 -0 -0 -0
-0 -0 -0 -0 -0 -0 -0 -0 -0 -0 -0 -0 -0 -0 -0 -0 -0 -0 -0 -0 -0 -0 -0 -0 -0 -0 -0 -0 -0 -0 -0 -0 -0 -0 -0 -0 -0 -0 -0 -0 -0 -0 -0 -0 -0 -0 -0 -0 -0 -0 -0 -0 -0 -0
-0 -0 -0 -0 -0 -0 -0 -0 -0 -0 -0 -0 -0 -0 -0 -0 -0 -0 -0 -0 -0 -0 -0 -0 -0 -0 -0 -0 -0 -0 -0 -0 -0 -0 -0 -0 -0 -0 -0 -0 -0 -0 -0 -0 -0 -0 -0 -0 -0 -0 -0 -49 -0 -0
-0 -0 -0 -0 -0 -0 -0 -0 -0 -0 -0 -0 -0 -0 -0 -0 -0 -0 -0 -0 -0 -0 -0 -0 -0 -0 -0 -0 -0 -0 -0 -0 -0 -0 -0 -0 -0 -0 -0 -0 -0 -0 -0 -0 -0 -0 -0 -0 -0 -0 -0 -0 -0 -0
-9 -9 -0 -0 -0 -0 -0 -0 -0 -0 -0 -0 -0 -0 -0 -0 -0 -0 -0 -0 -0 -0 -0 -0 -0 -0 -0 -0 -0 -0 -0 -0 -0 -0 -0 -0 -0 -0 -0 -0 -0 -0 -0 -0 -0 -0 -0 -0 -0 -0 -0 -0 -0 -0
-3 -9 -0 -0 -0 -0 -0 -0 -0 -0 -0 -0 -0 -0 -0 -0 -0 -0 -0 -0 -0 -0 -0 -0 -0 -0 -0 -0 -0 -0 -0 -0 -0 -0 -0 -0 -0 -0 -0 -0 -0 -0 -0 -0 -0 -0 -0 -0 -0 -0 -0 -0 -0 -0
-13 -8 -7 -8 -0 -0 -0 -0 -0 -0 -0 -0 -0 -0 -0 -0 -0 -0 -0 -0 -0 -0 -0 -0 -0 -0 -0 -0 -0 -0 -0 -0 -0 -0 -0 -0 -0 -0 -0 -0 -0 -0 -0 -0 -0 -0 -0 -0 -0 -0 -0 -0 -0 -0
-17 -8 -1 -2 -3 -2 -0 -0 -0 -0 -0 -0 -0 -0 -0 -0 -0 -0 -0 -0 -0 -0 -0 -0 -0 -0 -0 -0 -2 -0 -0 -0 -0 -0 -0 -0 -0 -0 -0 -0 -0 -0 -0 -0 -0 -0 -0 -0 -0 -0 -0 -0 -0 -0
-10 -7 -0 -0 -1 -3 -0 -0 -0 -0 -0 -0 -0 -0 -0 -0 -0 -0 -0 -0 -0 -0 -0 -0 -0 -0 -0 -0 -0 -0 -0 -0 -0 -0 -0 -0 -0 -0 -0 -0 -0 -0 -0 -0 -0 -0 -0 -0 -0 -0 -0 -0 -0 -0
-7 -0 -1 -1 -0 -1 -1 -4 -5 -2 -0 -0 -0 -0 -0 -0 -0 -0 -0 -0 -0 -0 -0 -0 -0 -0 -0 -0 -0 -0 -0 -0 -0 -0 -0 -0 -0 -0 -0 -0 -0 -0 -0 -0 -0 -0 -0 -0 -0 -0 -0 -0 -0 -0
-0 -0 -0 -0 -0 -0 -0 -3 -2 -0 -0 -0 -0 -0 -3 -1 -0 -0 -0 -1 -0 -0 -0 -0 -0 -0 -0 -0 -0 -0 -0 -0 -0 -0 -0 -0 -0 -0 -0 -0 -0 -0 -0 -0 -0 -0 -0 -0 -0 -0 -0 -0 -7 -14
-0 -0 -0 -0 -0 -0 -0 -1 -0 -0 -0 -0 -0 -2 -1 -0 -0 -1 -0 -0 -0 -0 -0 -0 -0 -0 -0 -0 -0 -0 -0 -0 -0 -0 -0 -0 -0 -0 -0 -0 -0 -0 -0 -0 -0 -0 -0 -0 -0 -0 -0 -0 -0 -0
-0 -0 -0 -0 -0 -0 -0 -0 -0 -2 -2 -0 -1 -0 -0 -0 -0 -0 -0 -0 -0 -0 -0 -15 -0 -2 -1 -1 -0 -0 -0 -0 -0 -0 -0 -0 -13 -0 -0 -0 -0 -0 -0 -0 -0 -0 -0 -0 -0 -0 -0 -0 -0 -0
-2 -1 -0 -0 -0 -0 -0 -8 -0 -0 -0 -0 -0 -0 -0 -0 -0 -0 -0 -0 -0 -0 -0 -0 -0 -14 -0 -0 -0 -0 -0 -0 -0 -0 -0 -9 -0 -0 -0 -0 -0 -0 -0 -0 -0 -0 -0 -0 -0 -0 -0 -0 -0 -0
-0 -1 -2 -0 -0 -0 -0 -0 -0 -0 -0 -0 -0 -0 -0 -0 -0 -0 -0 -5 -0 -0 -0 -0 -0 -0 -22 -0 -0 -0 -0 -0 -0 -1 -6 -0 -0 -0 -0 -0 -0 -0 -0 -0 -0 -0 -0 -0 -0 -0 -0 -0 -0 -0
-0 -0 -0 -3 -4 -6 -0 -0 -0 -0 -0 -0 -0 -0 -0 -0 -0 -0 -0 -0 -0 -0 -0 -0 -0 -0 -0 -0 -0 -0 -0 -0 -0 -0 -0 -0 -0 -0 -0 -0 -0 -0 -0 -0 -0 -0 -0 -0 -0 -0 -0 -0 -0 -0
-0 -0 -0 -0 -1 -2 -0 -0 -0 -0 -0 -0 -0 -0 -0 -0 -0 -0 -0 -0 -0 -0 -0 -0 -0 -0 -0 -0 -0 -0 -0 -4 -0 -0 -0 -0 -0 -0 -0 -0 -0 -0 -0 -0 -0 -0 -0 -0 -0 -0 -0 -0 -0 -0
-2 -0 -5 -2 -14 -0 -0 -1 -0 -0 -0 -0 -0 -0 -0 -0 -0 -0 -0 -0 -2 -1 -0 -0 -0 -0 -0 -18 -0 -0 -0 -0 -0 -0 -0 -0 -0 -0 -0 -0 -0 -0 -0 -0 -0 -0 -0 -0 -0 -0 -0 -0 -0 -0
-17 -0 -0 -0 -14 -10 -0 -0 -0 -0 -0 -0 -0 -0 -0 -0 -0 -0 -0 -5 -0 -1 -10 -0 -0 -0 -0 -0 -0 -0 -0 -0 -6 -0 -0 -0 -0 -0 -0 -0 -0 -0 -0 -0 -0 -0 -0 -0 -0 -0 -0 -0 -0 -0
-0 -0 -0 -0 -0 -0 -0 -0 -0 -0 -0 -0 -0 -0 -0 -0 -0 -0 -0 -2 -2 -0 -0 -0 -0 -0 -0 -0 -0 -0 -0 -0 -1 -0 -0 -0 -0 -0 -0 -0 -0 -0 -0 -0 -0 -0 -0 -0 -0 -0 -0 -0 -0 -0
-0 -0 -0 -1 -0 -0 -0 -0 -0 -0 -0 -0 -0 -0 -0 -0 -0 -0 -0 -0 -0 -0 -0 -0 -0 -0 -0 -0 -0 -0 -0 -0 -0 -0 -0 -0 -0 -0 -0 -0 -0 -0 -0 -0 -0 -0 -0 -0 -0 -0 -0 -0 -0 -0
-0 -0 -0 -0 -2 -0 -0 -0 -0 -0 -0 -0 -0 -0 -0 -0 -0 -0 -0 -1 -0 -0 -0 -0 -0 -0 -0 -0 -0 -0 -0 -0 -0 -0 -1 -0 -0 -0 -0 -0 -0 -1 -4 -3 -4 -0 -0 -0 -0 -0 -0 -0 -0 -0
-0 -1 -0 -0 -0 -0 -0 -0 -1 -6 -0 -1 -0 -5 -0 -0 -3 -0 -0 -0 -0 -0 -0 -0 -0 -0 -13 -0 -0 -0 -0 -0 -0 -4 -7 -5 -0 -0 -0 -0 -0 -0 -0 -0 -0 -8 -0 -0 -0 -0 -0 -0 -0 -0
-0 -0 -0 -0 -0 -0 -0 -0 -0 -0 -0 -0 -1 -0 -0 -0 -0 -0 -0 -0 -0 -0 -0 -0 -0 -0 -0 -0 -0 -0 -0 -0 -0 -0 -4 -4 -3 -6 -17 -18 -0 -0 -0 -0 -0 -2 -0 -0 -0 -0 -0 -0 -0 -0
-0 -0 -0 -0 -0 -0 -0 -0 -0 -0 -0 -0 -0 -0 -0 -4 -0 -0 -0 -0 -0 -0 -0 -0 -0 -0 -0 -11 -4 -0 -0 -0 -0 -0 -0 -0 -9 -17 -14 -0 -19 -0 -0 -5 -10 -13 -0 -0 -0 -0 -0 -0 -0 -0
-0 -0 -0 -0 -0 -0 -0 -0 -0 -0 -0 -0 -0 -0 -0 -0 -0 -0 -0 -0 -0 -0 -0 -0 -0 -0 -0 -0 -0 -0 -0 -0 -0 -0 -0 -0 -0 -0 -0 -0 -0 -0 -0 -0 -0 -16 -0 -0 -0 -0 -0 -0 -0 -0
-0 -0 -0 -0 -0 -0 -0 -0 -0 -0 -0 -0 -0 -0 -0 -0 -0 -0 -0 -0 -0 -0 -0 -0 -0 -0 -0 -0 -0 -0 -0 -0 -0 -0 -0 -0 -0 -0 -0 -0 -0 -0 -0 -0 -0 -0 -0 -0 -0 -0 -0 -0 -0 -0
-0 -0 -0 -0 -0 -0 -0 -0 -0 -0 -0 -0 -19 -11 -10 -0 -0 -0 -0 -0 -0 -0 -0 -0 -0 -0 -0 -0 -0 -0 -0 -0 -0 -0 -0 -0 -0 -0 -0 -0 -0 -0 -0 -0 -0 -0 -0 -0 -0 -0 -0 -0 -0 -0
-0 -0 -0 -0 -0 -0 -0 -0 -0 -0 -0 -16 -0 -0 -0 -0 -0 -0 -0 -0 -0 -0 -0 -0 -0 -0 -0 -0 -0 -0 -0 -0 -0 -0 -0 -0 -0 -0 -0 -0 -0 -0 -0 -0 -0 -0 -0 -0 -0 -0 -0 -0 -0 -0
-0 -0 -0 -0 -0 -0 -0 -0 -0 -0 -0 -0 -0 -0 -0 -0 -0 -0 -0 -0 -0 -0 -0 -0 -0 -0 -0 -2 -0 -0 -0 -0 -0 -0 -3 -0 -0 -0 -0 -0 -5 -2 -1 -0 -0 -0 -0 -0 -0 -0 -0 -0 -0 -0
-0 -0 -0 -0 -0 -0 -0 -0 -0 -0 -0 -0 -0 -0 -0 -0 -0 -0 -0 -0 -0 -0 -0 -0 -0 -0 -0 -0 -0 -0 -0 -0 -0 -0 -0 -0 -0 -0 -0 -0 -5 -2 -5 -3 -0 -0 -0 -0 -0 -0 -0 -0 -0 -0
-0 -0 -0 -0 -0 -0 -0 -0 -0 -0 -0 -0 -0 -0 -0 -0 -0 -0 -0 -0 -0 -0 -0 -0 -0 -0 -0 -0 -0 -0 -0 -0 -0 -0 -0 -0 -0 -0 -0 -0 -0 -0 -0 -9 -13 -0 -0 -0 -0 -0 -0 -0 -0 -0
-0 -0 -0 -0 -0 -0 -0 -0 -0 -0 -0 -0 -0 -0 -0 -0 -0 -0 -0 -0 -0 -0 -0 -0 -0 -0 -0 -0 -0 -0 -0 -0 -0 -0 -0 -0 -0 -0 -0 -0 -0 -0 -0 -0 -0 -0 -0 -0 -0 -0 -0 -0 -0 -0
Wind_Speed
17 17 18 17 17 16 15 16 15 14 13 12 11 11 10 10 10 6 9 11 11 11 12 14 14 18 18 20 22 19 19 22 22 28 30 30 30 29 29 27 28 29 31 35 32 34 43 23 25 29 25 20 21 21
14 14 13 13 14 14 13 13 12 14 14 14 14 14 12 11 10 8 8 11 10 7 8 7 7 7 7 8 8 13 16 17 17 22 23 22 27 24 25 33 20 29 24 27 26 31 24 21 22 21 21 24 24 24
11 11 12 12 12 12 12 12 12 12 12 13 16 16 16 16 14 11 8 9 8 4 6 7 8 9 10 8 4 12 12 9 12 13 16 18 24 21 28 31 29 27 25 31 32 33 30 28 28 27 27 25 22 22
9 8 8 9 10 11 11 10 8 9 9 10 12 13 15 15 14 13 12 12 10 7 10 9 8 7 7 9 8 8 8 12 13 17 19 20 24 23 27 28 30 29 28 31 36 36 34 34 31 28 25 23 22 23
7 6 6 7 7 8 9 9 9 8 6 5 7 10 12 12 12 14 13 12 10 8 7 5 9 9 7 8 9 9 10 14 16 18 20 23 23 24 26 28 32 28 33 35 41 31 33 36 31 28 30 31 31 32
9 3 4 3 3 4 6 7 8 8 6 5 5 6 8 9 7 7 8 12 12 9 8 9 12 10 9 8 9 11 13 16 17 18 21 22 21 23 29 33 31 28 30 32 40 32 36 40 40 37 38 37 37 36
9 7 2 1 4 4 2 4 4 4 4 4 4 6 8 11 9 9 11 12 13 12 11 11 12 13 8 9 12 13 13 16 18 19 22 22 22 21 28 36 43 34 31 29 28 29 33 34 37 32 31 34 34 31
8 4 6 10 11 10 8 0 3 2 3 4 4 5 7 8 8 9 12 13 14 12 12 13 14 12 11 11 11 14 13 16 17 18 19 20 20 22 31 34 36 30 27 25 24 22 24 30 35 38 37 36 34 31
4 7 12 13 16 10 27 20 10 4 2 3 3 7 9 10 11 12 12 13 13 12 12 12 10 11 12 10 11 12 12 15 15 18 18 16 19 23 24 27 25 24 20 19 14 5 10 8 12 5 27 33 36 32
7 11 17 17 19 27 18 12 14 5 4 3 10 11 11 12 9 12 15 14 13 13 13 12 12 11 9 11 10 11 13 14 16 15 13 15 20 4 15 18 18 16 16 19 23 22 18 12 17 26 31 31 32 32
8 12 14 16 20 9 8 6 9 5 6 13 12 11 11 10 14 14 13 12 12 13 12 13 11 8 11 8 9 11 12 13 16 14 11 16 19 20 19 18 18 15 18 22 26 23 18 17 15 16 19 21 23 23
4 4 3 4 8 6 5 8 5 10 14 10 5 9 12 13 14 14 13 12 13 12 11 10 10 7 10 15 13 14 15 15 15 17 18 17 16 16 16 17 18 18 17 9 23 21 20 21 19 18 18 22 17 12
12 10 8 8 7 9 10 3 6 6 4 7 12 13 13 14 16 15 14 13 12 11 10 13 15 15 16 18 18 19 20 21 17 20 19 18 18 17 19 19 17 15 13 12 13 15 18 18 17 17 14 14 12 12
28 23 11 8 8 6 6 5 8 10 10 11 13 12 14 15 16 14 14 14 16 15 15 12 15 17 17 17 17 18 19 18 19 19 17 16 16 18 17 16 16 15 14 14 14 15 15 13 12 11 10 10 10 11
24 19 11 5 2 3 7 10 10 11 11 12 14 16 17 16 15 15 17 16 15 15 14 16 16 17 17 17 17 16 16 18 17 16 15 16 17 17 17 16 15 16 16 17 17 16 15 13 11 10 9 9 8 8
23 22 14 4 5 5 7 10 13 13 14 15 16 17 17 17 17 18 18 20 17 15 15 16 16 16 18 16 16 17 15 16 15 15 15 17 18 18 17 17 18 19 20 20 18 17 14 12 11 10 10 9 8 7
20 19 23 21 11 8 13 15 14 14 16 16 18 19 18 18 19 19 19 20 19 16 17 16 17 18 14 15 15 15 16 15 16 16 16 15 17 16 15 16 18 19 19 19 18 16 14 12 11 10 9 9 9 8
15 22 27 27 23 22 19 18 20 19 20 21 20 20 21 20 19 20 19 18 17 18 17 18 17 17 17 16 14 16 17 19 19 15 15 16 16 15 15 16 16 17 18 18 17 15 13 12 11 10 9 9 9 8
9 16 23 26 19 21 20 21 21 20 22 20 21 21 20 20 21 21 18 17 17 17 17 16 17 18 19 18 20 20 20 19 16 13 15 17 17 15 15 15 15 17 17 17 16 14 12 12 11 10 9 8 7 7
8 12 15 18 16 17 18 18 19 22 20 19 19 19 19 18 18 19 18 16 16 17 17 17 19 18 19 21 20 20 19 19 18 13 16 16 16 15 16 17 16 14 14 16 16 15 14 13 12 11 10 9 7 6
13 14 12 13 17 17 18 18 19 19 20 21 18 17 18 18 20 18 16 12 15 16 17 17 16 14 13 15 17 16 16 15 15 15 17 15 12 12 17 19 19 11 11 11 11 12 12 13 13 11 10 10 8 6
12 12 13 14 14 17 19 19 18 18 18 18 17 16 17 18 18 17 14 15 17 15 13 15 15 12 17 18 15 15 13 17 18 17 16 14 13 12 16 17 17 13 9 9 9 9 9 11 11 10 11 11 9 6
8 14 13 12 16 18 20 17 18 16 16 16 15 16 17 17 15 10 16 17 17 15 17 20 22 18 15 14 14 13 13 15 16 16 16 16 12 12 16 17 16 17 15 11 7 7 7 8 8 9 9 9 8 7
16 15 17 16 17 20 19 20 19 19 19 18 18 19 18 17 16 16 18 18 19 18 15 13 13 15 15 16 16 15 15 16 17 16 17 18 20 17 16 17 17 19 19 18 13 10 7 7 8 8 8 7 6 6
16 16 17 19 17 19 20 21 21 21 22 21 21 21 19 17 18 20 21 21 18 16 15 15 15 16 16 15 15 15 17 17 16 17 19 19 18 18 18 21 22 21 21 18 17 13 10 6 6 6 6 6 5 5
14 16 16 18 19 19 20 22 22 23 23 22 22 21 20 21 22 24 23 19 18 17 16 14 13 13 13 13 13 15 18 18 16 16 18 19 19 19 20 21 22 23 23 18 17 17 14 9 7 6 5 5 4 4
14 19 19 19 22 22 22 21 21 20 22 23 22 21 22 23 25 25 23 21 17 14 13 10 9 10 10 12 14 16 17 18 18 19 20 20 19 20 20 21 22 23 23 21 21 18 17 16 14 10 9 7 6 4
15 19 25 29 24 22 24 24 24 24 24 22 21 23 23 24 24 23 21 17 10 7 8 9 10 11 12 14 16 18 20 21 21 16 15 17 19 20 21 21 21 23 23 22 21 20 19 20 20 18 14 12 10 8
13 25 27 25 25 24 22 23 25 23 25 23 23 24 21 20 23 21 19 15 11 6 6 9 11 12 14 16 17 18 20 20 20 20 21 22 23 24 25 24 24 24 24 24 24 22 20 21 22 23 20 16 14 12
7 23 21 21 23 22 20 24 26 28 27 25 18 16 15 15 17 16 14 13 11 7 10 12 13 14 15 15 15 18 19 20 20 21 21 22 24 25 25 24 25 26 26 25 25 24 22 22 22 21 20 19 17 16
5 7 12 17 21 26 30 31 29 27 21 20 19 13 13 12 13 16 16 15 13 13 13 15 15 16 15 15 16 18 20 21 21 21 22 23 24 24 26 26 26 25 25 25 25 24 24 23 22 22 21 20 20 17
9 6 9 13 23 28 29 26 27 24 22 20 21 16 14 17 18 18 20 18 16 16 17 17 16 15 14 16 17 18 19 20 21 21 22 23 24 25 25 25 25 25 25 25 24 24 24 24 24 23 22 21 21 21
9 8 8 11 17 22 24 26 24 25 25 23 21 18 18 18 19 17 18 19 18 19 19 18 16 14 16 17 18 19 19 19 20 22 23 24 24 25 25 25 25 24 25 25 25 25 25 25 25 25 25 25 24 23
Wind_Direction
21 27 34 36 37 38 34 37 40 39 37 32 29 24 18 15 358 330 292 319 263 255 269 274 262 255 251 256 252 251 263 270 267 265 266 269 271 271 273 275 272 271 273 275 278 278 284 292 291 285 294 303 306 308
17 22 24 32 35 34 30 29 32 35 38 35 30 22 9 353 355 358 341 360 19 323 283 11 29 339 304 294 264 262 279 265 275 271 274 279 277 275 273 273 278 274 276 274 275 279 289 293 293 301 299 301 303 302
17 23 29 32 37 37 39 41 40 33 33 36 36 32 36 40 38 44 25 6 15 347 342 335 323 353 358 359 334 276 289 299 285 289 282 284 281 284 276 274 278 281 284 281 283 285 285 286 289 293 297 297 300 302
1 13 23 25 34 41 38 33 36 36 39 42 40 34 34 36 38 40 34 17 26 6 295 316 349 343 343 347 332 313 296 292 288 284 285 287 284 286 283 285 282 281 285 283 282 285 289 288 290 293 293 295 297 302
14 47 32 25 25 39 42 37 41 40 37 35 37 38 32 31 42 44 30 3 358 354 305 325 320 334 336 313 307 310 295 288 286 284 285 283 289 291 290 290 284 285 282 281 282 287 288 286 291 294 293 293 294 295
303 343 43 5 9 26 49 50 43 47 33 16 9 357 347 341 338 337 343 333 312 335 333 312 303 305 308 323 312 296 291 290 290 287 289 291 297 292 292 289 292 290 289 289 286 289 288 288 289 288 287 288 289 290
289 282 290 341 282 269 14 50 36 24 7 340 339 340 343 356 351 306 289 298 313 314 304 299 299 302 314 323 310 307 304 297 295 295 292 294 294 296 294 291 288 295 294 293 293 296 292 289 288 291 289 289 287 289
280 268 259 259 246 249 247 242 58 12 321 325 324 331 332 325 320 316 312 312 310 307 301 293 295 302 307 303 304 302 305 303 303 300 302 300 305 302 297 299 303 306 302 296 291 291 294 298 292 286 285 283 282 287
269 255 246 246 234 239 204 136 98 84 32 4 326 277 281 285 286 288 304 315 315 301 290 291 294 295 291 303 308 311 313 305 314 304 305 315 310 306 313 316 317 313 308 308 313 284 220 235 222 279 283 266 266 279
254 249 235 232 231 214 217 118 113 101 76 289 257 276 281 277 333 294 298 301 303 298 300 295 301 300 309 299 305 321 316 315 316 324 340 327 321 213 219 235 233 221 209 203 209 213 206 169 203 246 254 249 236 219
231 225 218 211 201 192 167 151 114 116 246 244 260 274 266 283 290 300 311 309 314 307 307 301 294 312 298 318 312 309 324 327 321 332 341 330 313 269 272 272 293 244 213 205 200 195 191 197 194 214 209 223 195 169
222 215 130 202 210 195 149 120 112 245 250 258 287 263 265 285 291 280 285 291 285 295 302 315 319 290 280 261 289 286 287 293 291 234 254 275 232 285 292 294 300 307 305 263 202 186 194 209 213 207 206 190 136 95
58 60 64 72 81 101 103 94 240 214 242 279 272 275 285 287 272 267 267 274 285 289 297 249 228 234 244 241 246 243 241 235 244 224 226 242 289 278 303 312 303 298 296 299 298 259 221 193 171 174 94 78 70 71
100 88 63 64 82 101 210 232 239 247 260 279 276 278 283 285 269 268 258 264 244 238 230 251 235 231 232 228 232 236 236 240 222 221 239 306 291 311 322 325 323 315 309 307 299 305 315 336 3 17 28 39 60 69
89 78 58 36 271 261 255 257 272 268 283 284 277 271 267 262 260 256 242 238 239 243 254 243 240 234 229 231 231 242 241 236 243 260 284 255 315 329 329 312 304 314 318 322 330 340 346 353 6 18 23 28 35 38
83 76 49 316 260 266 266 270 265 272 280 275 271 265 254 252 252 247 240 229 235 257 256 242 241 242 236 245 248 239 250 255 273 297 324 317 318 331 337 338 332 337 336 345 340 342 348 358 5 9 13 19 21 14
74 104 117 179 230 246 236 238 245 256 256 252 241 236 237 242 239 237 235 236 241 256 237 241 240 237 254 257 266 265 273 282 293 354 5 8 351 349 358 346 333 341 351 355 355 355 360 11 18 18 16 358 354 352
169 129 130 139 176 193 210 215 213 214 215 215 227 232 232 237 243 237 244 251 258 256 261 253 256 254 263 271 281 291 294 292 309 18 12 7 9 11 359 340 344 351 352 355 357 357 9 13 12 11 4 6 14 10
341 81 114 135 181 191 205 205 212 217 212 222 228 239 242 243 239 238 267 279 275 265 269 277 273 274 275 286 295 305 301 303 346 20 3 346 355 16 2 356 354 349 348 342 350 6 16 8 23 24 14 4 6 8
346 265 243 223 230 223 219 223 231 221 229 242 248 243 249 256 264 259 266 276 274 275 280 281 282 290 291 300 308 313 321 323 325 359 333 339 1 20 357 337 350 7 1 343 337 348 352 356 357 6 7 7 13 13
283 273 286 270 247 250 243 244 243 249 250 245 256 269 267 271 266 271 281 297 293 291 288 293 305 321 334 340 334 331 331 337 332 333 329 342 3 20 334 317 315 44 76 86 55 28 16 3 355 356 357 349 351 359
293 287 281 267 275 271 266 265 267 276 270 268 276 280 284 287 288 287 300 300 297 307 322 318 319 331 316 317 336 330 344 311 305 320 333 343 345 357 323 340 345 7 56 76 103 107 82 34 29 20 359 352 356 0
308 292 307 299 282 276 270 283 283 291 291 292 300 299 298 297 305 327 302 300 303 315 309 296 288 304 316 328 341 348 344 318 317 316 322 325 350 352 325 325 337 341 346 7 63 86 100 97 68 48 36 21 6 353
296 295 292 289 280 276 284 279 283 283 288 290 294 294 299 299 301 300 299 301 300 305 310 317 317 314 320 322 324 328 324 324 322 322 324 318 314 324 332 329 324 324 327 334 354 13 42 64 67 76 69 50 26 1
295 292 293 286 290 287 283 283 283 283 284 288 290 292 297 301 299 296 295 297 304 307 311 314 316 312 313 318 322 325 322 324 325 324 322 323 323 326 323 313 311 312 317 328 336 348 352 16 39 54 60 69 55 30
294 294 293 291 290 288 287 287 286 284 286 289 289 294 298 295 295 293 297 302 301 300 305 310 316 324 325 323 324 323 321 325 333 329 327 326 326 326 323 322 322 314 310 321 328 331 339 340 337 350 7 24 48 34
301 293 291 301 293 292 289 290 292 293 288 286 291 293 293 291 292 296 304 306 306 309 315 324 326 324 325 326 327 329 331 330 328 322 320 323 329 328 324 319 319 320 321 323 320 320 322 323 321 317 317 326 334 350
318 305 290 285 289 289 285 286 286 286 288 292 293 288 289 290 294 304 309 312 319 331 338 340 340 339 332 328 326 324 322 322 320 331 334 331 331 333 331 329 327 326 326 327 327 326 322 318 314 312 308 306 306 308
330 307 298 290 288 285 289 285 284 288 295 292 290 291 298 304 307 304 307 309 307 317 332 335 334 336 334 332 330 329 327 328 323 317 314 314 315 315 319 320 320 321 322 320 319 321 321 319 313 307 304 302 302 302
355 317 308 297 288 285 295 300 293 291 291 290 298 305 311 321 322 318 311 309 308 315 329 331 332 331 329 331 335 335 335 334 333 328 322 319 317 318 319 319 318 317 316 316 314 313 315 317 317 312 305 302 300 299
27 2 330 306 296 290 287 289 291 291 293 291 289 289 287 297 312 320 316 301 303 320 324 321 322 325 334 336 332 331 331 333 334 331 328 324 323 323 320 317 317 318 317 315 313 312 310 311 314 311 304 301 299 300
35 40 0 328 303 292 289 292 286 285 287 285 284 284 279 283 283 290 303 306 307 308 310 315 317 327 337 344 343 342 341 338 335 334 333 331 328 325 324 324 322 320 319 316 314 311 309 305 305 305 303 301 300 301
35 45 37 354 321 306 300 293 286 282 278 279 280 281 274 279 281 288 304 315 307 303 303 307 316 335 338 338 336 336 337 339 340 338 336 335 332 331 330 328 326 323 319 315 313 311 307 304 303 302 299 297 298 300